www.pogodaiklimat.ru

Погода и климат >> Архив погоды >> Германия >> Лейпциг


АРХИВ ПОГОДЫ в Лейпциге

Время (UTC), дата Ветер
(напр.,м/с)
 
Видим.   Явления Облачность Т
(С)
Тd
(С)
f
(%)
Тe
(С)
Тes
(С)
Комфортность P
(гПа)
Po
(гПа)
Тmin
(С)
Tmax
(С)
R
(мм)
R24
(мм)
S
(см)
01 13.09 ЮЗ 4 60 км 3/0
[Ac trans]
+15.3 +13.0 86 +14 +14 тепло 1028.2 1012.0
02 13.09 ЮЗ 5 60 км 3/1 1260 м
[Sc Ac trans Ci]
+14.8 +12.9 88 +13 +13 тепло 1028.3 1012.0
03 13.09 ЮЗ 4 50 км 4/3 1440 м
[Sc Ac trans Ci fib]
+15.5 +13.1 86 +15 +15 тепло 1028.1 1011.9
04 13.09 ЮЗ 4 50 км 8/8 1350 м
[Sc Ci sp]
+15.9 +13.3 85 +15 +15 тепло 1028.0 1011.8
05 13.09 ЮЗ 5 60 км 9/9 1320 м
[Sc]
+16.3 +13.3 82 +15 +15 тепло 1028.3 1012.1
06 13.09 ЮЗ 6 60 км 9/9 1000 м
[Sc]
+16.6 +13.4 81 +16 +16 тепло 1028.5 1012.3 +14.4 +18.8
07 13.09 ЮЗ 6 60 км 9/4 1200 м
[Sc Ac und]
+18.4 +13.6 74 +18 +19 тепло 1028.5 1012.4
08 13.09 З 7 60 км 9/9 2000 м
[Sc]
+19.0 +13.9 72 +20 +20 тепло 1028.8 1012.8
09 13.09 З 6 60 км 9/9 1000 м
[Sc]
+20.0 +14.1 69 +22 +22 комфорт 1028.9 1012.9
10 13.09 З 8 60 км 9/9 900 м
[Cu Sc]
+20.4 +14.4 68 +22 +23 комфорт 1029.1 1013.1
11 13.09 З 8 50 км 9/9 800 м
[Cu Sc]
+21.0 +14.5 66 +24 +24 комфорт 1029.0 1013.1
12 13.09 З 7 50 км 9/9 840 м
[Cu Sc]
+21.6 +14.4 64 +25 +25 комфорт 1029.1 1013.2
13 13.09 З 5 55 км в посл. час ливневой дождь 8/8 900 м
[Cu med, cong]
+22.2 +14.2 60 +25 +26 комфорт 1029.3 1013.4
14 13.09 З 5 55 км в посл. час ливневой дождь 9/9 1500 м
[Cu med, cong]
+21.5 +13.5 60 +24 +24 комфорт 1029.6 1013.7
15 13.09 СЗ 5 60 км {ливн. осадки} 9/9 1050 м
[Cu Sc]
+20.0 +13.0 64 +22 +22 комфорт 1030.1 1014.1 0.0
16 13.09 СЗ 4 65 км в посл. час ливневой дождь 9/9 1080 м
[Cu Sc]
+20.3 +12.1 59 +22 +22 комфорт 1030.2 1014.2
17 13.09 С 3 70 км слаб. дождь 9/8 1260 м
[Cu Sc Ci fib]
+19.9 +11.1 57 +22 +22 комфорт 1030.5 1014.5
18 13.09 С 2 70 км в посл. час дождь {ливн. осадки} 9/8 1000 м
[Cu Sc Ci fib]
+18.5 +10.1 58 +19 +19 тепло 1031.1 1015.0 +16.6 +23.0 0.0
19 13.09 С 2 65 км 9/8 1410 м
[Sc]
+17.2 +10.1 63 +18 +18 тепло 1032.0 1015.8
20 13.09 С 2 65 км 9/9 1440 м
[Sc]
+16.6 +10.5 67 +17 +17 тепло 1032.7 1016.4
21 13.09 С 3 65 км 9/9 1500 м
[Sc]
+16.1 +8.1 59 +16 +16 тепло 1033.2 1016.9
22 13.09 СЗ 3 60 км 9/9 1440 м
[Sc]
+15.1 +7.1 59 +15 +15 тепло 1034.0 1017.6
23 13.09 С 3 60 км 10/9 1470 м
[Sc]
+14.5 +6.8 60 +14 +14 тепло 1034.3 1017.9
00 14.09 С 3 60 км 9/9 1500 м
[Sc]
+13.7 +6.6 62 +13 +13 тепло 1034.3 1017.8
01 14.09 С 3 55 км 8/8 1500 м
[Sc]
+12.4 +6.4 67 +11 +11 тепло 1034.4 1017.9
02 14.09 С 3 55 км 9/9 1500 м
[Sc]
+11.7 +6.1 68 +10 +10 по сезону 1034.6 1018.0
03 14.09 СЗ 2 50 км 3/3 1500 м
[Sc]
+10.6 +6.1 74 +9 +9 по сезону 1034.4 1017.8
04 14.09 С 3 50 км 1/1 1500 м
[Sc]
+9.4 +6.1 80 +7 +7 по сезону 1034.7 1018.0
05 14.09 С 2 50 км 1/1 1500 м
[Sc]
+8.5 +5.9 84 +7 +7 по сезону 1035.2 1018.4
06 14.09 С 2 50 км 1/1 1500 м
[Sc]
+9.7 +6.4 80 +8 +9 по сезону 1035.1 1018.4 +8.2 +18.6
07 14.09 С 3 50 км 3/0
[Ac trans Ci sp]
+11.2 +7.2 76 +9 +11 по сезону 1035.3 1018.7
08 14.09 С 2 50 км 5/4 1200 м
[Sc Ci sp]
+12.5 +7.9 74 +12 +14 по сезону 1035.0 1018.5
09 14.09 СВ 2 50 км 1/1 600 м
[Cu hum Ci fib]
+15.0 +8.3 64 +15 +21 по сезону 1034.9 1018.5
10 14.09 С 2 50 км 5/4 1050 м
[Cu hum Ci]
+16.5 +7.2 54 +17 +22 по сезону 1034.7 1018.4
11 14.09 СВ 2 55 км 5/4 1200 м
[Cu hum Ci fib]
+16.5 +6.9 53 +17 +22 по сезону 1034.2 1017.9
12 14.09 ЮВ 2 55 км 6/4 1230 м
[Cu hum Ci]
+18.2 +6.2 45 +19 +24 тепло 1033.4 1017.2
13 14.09 Ю 2 60 км 6/1 1350 м
[Cu hum Ci sp]
+18.3 +5.9 44 +19 +25 тепло 1032.7 1016.5
14 14.09 В 2 60 км 3/1 1500 м
[Cu hum Ci sp]
+18.6 +4.5 39 +19 +24 тепло 1032.0 1015.8
15 14.09 С 2 60 км 3/0
[Ci fib]
+18.9 +4.3 38 +20 +22 тепло 1031.1 1015.0
16 14.09 С 1 60 км 6/0
[Ci]
+18.9 +5.4 41 +20 +21 тепло 1030.7 1014.6
17 14.09 СВ 1 60 км 9/0
[Ci]
+17.2 +6.2 48 +18 +18 тепло 1030.2 1014.0
18 14.09 В 2 60 км 9/0
[Ci fib]
+14.9 +6.6 58 +15 +15 по сезону 1030.4 1014.1 +9.7 +19.4
19 14.09 В 1 55 км 9/0
[Ci fib]
+13.1 +6.7 65 +13 +13 тепло 1030.4 1014.0
20 14.09 В 2 55 км 4/0
[Ci fib]
+12.6 +6.3 65 +12 +12 по сезону 1030.2 1013.7
21 14.09 В 3 50 км 4/0
[Ci fib]
+11.6 +6.1 69 +10 +10 прохладно 1029.4 1012.9
22 14.09 ЮВ 2 50 км 4/0
[Ci fib]
+11.5 +5.5 67 +11 +11 тепло 1029.3 1012.8
23 14.09 ЮВ 2 50 км 3/0
[Ci fib]
+11.0 +5.9 71 +10 +10 по сезону 1028.4 1011.9
00 15.09 Ю 4 45 км 3/0
[Ci fib]
+10.8 +7.3 79 +8 +8 по сезону 1027.4 1010.9
01 15.09 Ю 3-4
{4}
45 км ясно +9.7 +7.2 84 +7 +7 по сезону 1026.9 1010.3
02 15.09 Ю 2 45 км 6/0
[Ci]
+10.0 +8.0 87 +8 +8 по сезону 1026.2 1009.7
03 15.09 Ю 2 35 км 9/0
[Ci]
+10.1 +8.0 87 +9 +9 по сезону 1025.4 1008.9
04 15.09 Ю 4 30 км 9/0
[Ci fib]
+10.1 +8.0 87 +7 +7 по сезону 1024.9 1008.4
05 15.09 Ю 4 30 км 9/0
[Ci fib]
+11.0 +7.8 81 +9 +9 по сезону 1024.0 1007.6
06 15.09 ЮЗ 5 40 км 9/0
[Ac trans Ci sp]
+11.5 +8.5 82 +9 +9 по сезону 1024.0 1007.6 +9.4 +14.8
07 15.09 ЮЗ 4 40 км 8/0
[Ac trans Ci sp]
+13.1 +9.4 78 +11 +12 по сезону 1023.9 1007.6
08 15.09 ЮЗ 6 45 км 8/0
[Ci sp]
+15.8 +10.0 68 +14 +16 тепло 1023.2 1007.0
09 15.09 ЮЗ 7 50 км 8/0
[Ci sp]
+18.8 +10.0 57 +19 +20 тепло 1022.6 1006.6
10 15.09 З 7 50 км 9/0
[Ci]
+21.0 +8.4 44 +22 +24 комфорт 1022.0 1006.1
11 15.09 З 7 55 км 9/0
[Ci sp]
+21.9 +8.3 42 +23 +25 комфорт 1021.4 1005.6
12 15.09 ЮЗ 6 55 км 9/0
[Ci sp]
+23.2 +8.9 40 +25 +27 комфорт 1020.7 1005.0
13 15.09 З 5 60 км 9/0
[Ci sp]
+24.0 +8.1 36 +24 +28 комфорт 1020.2 1004.5
14 15.09 З 8 60 км 9/0
[Ci sp]
+25.2 +4.8 27 +25 +25 комфорт 1019.1 1003.5
15 15.09 З 7 70 км 9/0
[Ac trans Cs]
+24.0 +4.8 29 +24 +24 комфорт 1018.7 1003.0
16 15.09 З 5 70 км 9/0
[Ac trans Cs]
+23.2 +4.9 30 +23 +24 комфорт 1018.5 1002.8
17 15.09 З 4 70 км 9/0
[Ac trans Cs]
+22.6 +4.3 30 +23 +23 комфорт 1018.4 1002.7
18 15.09 З 3 70 км 8/0
[Ac trans Ci fib]
+20.9 +4.1 33 +22 +22 комфорт 1018.5 1002.7 +11.4 +25.5
19 15.09 СЗ 3 65 км 8/0
[Ci fib]
+19.9 +3.9 35 +21 +21 комфорт 1019.1 1003.2
20 15.09 СЗ 2 65 км 8/0
[Ci fib]
+17.7 +4.2 41 +18 +18 тепло 1019.3 1003.3
21 15.09 З 3 65 км 6/1 2000 м
[Sc As trans Ci fib]
+16.8 +3.1 40 +17 +17 тепло 1019.5 1003.4
22 15.09 СЗ 3 65 км 8/3 1500 м
[Sc Ci]
+19.1 +3.8 36 +20 +20 тепло 1019.3 1003.4
23 15.09 С 3 65 км 9/6 1500 м
[Sc Ci fib]
+16.8 +8.3 57 +17 +17 тепло 1019.7 1003.6
00 16.09 СЗ 2 55 км 10/4 300 м
[Sc As trans]
+15.5 +12.3 81 +15 +15 тепло 1020.0 1003.9
01 16.09 С 6 55 км 10/9 330 м
[St]
+14.2 +11.6 84 +12 +12 тепло 1020.6 1004.4
02 16.09 СЗ 3 50 км 10/10 540 м
[Sc]
+14.3 +9.4 72 +13 +13 тепло 1020.5 1004.3
03 16.09 СЗ 2 50 км 10/10 1020 м
[Sc]
+14.2 +10.3 77 +14 +14 тепло 1020.3 1004.1
04 16.09 З 2 45 км 10/10 1110 м
[Sc]
+14.0 +10.7 80 +13 +13 тепло 1020.2 1004.0
05 16.09 З 2 40 км 10/6 1200 м
[Sc Ac As]
+13.5 +10.8 84 +13 +13 тепло 1020.3 1004.1
06 16.09 СЗ 2 30 км 10/9 600 м
[Cu Sc]
+13.6 +11.0 84 +13 +13 тепло 1020.5 1004.3 +13.3 +20.7
07 16.09 СЗ 3 30 км 10/8 420 м
[Cu Sc Ac As]
+14.1 +10.7 80 +13 +13 тепло 1020.1 1003.9
08 16.09 С 4 28 км 10/9 420 м
[Cu Sc]
+13.4 +9.5 77 +12 +12 по сезону 1020.5 1004.3
09 16.09 С 3 25 км слаб. дождь {морось} 10/9 300 м
[Sc]
+12.5 +9.7 83 +11 +11 по сезону 1020.4 1004.1 0.0
10 16.09 С 2 22 км слаб. дождь 10/6 570 м
[Sc As op]
+12.8 +9.9 83 +12 +13 прохладно 1020.1 1003.8
11 16.09 С 2 18 км слаб. дождь 10/9 270 м
[Sc]
+13.5 +11.0 85 +13 +13 прохладно 1019.5 1003.3
12 16.09 С 3 25 км слаб. морось {дождь} 10/10 360 м
[Sc]
+12.8 +10.2 84 +11 +11 холодно 1019.3 1003.0 0.3
13 16.09 С 2 18 км слаб. морось 10/10 360 м
[Sc]
+12.9 +10.2 84 +12 +12 по сезону 1018.7 1002.5
14 16.09 С 3 5000 м дождь {морось} 10/8 180 м
[St As op]
+12.2 +11.2 94 +11 +11 прохладно 1018.6 1002.3
15 16.09 С 1 4500 м слаб. морось {дождь} 10/8 150 м
[Sc]
+11.9 +11.1 95 +12 +12 прохладно 1018.5 1002.2 0.4
16 16.09 С 2 3000 м морось {дождь} 10/10 120 м
[Sc]
+12.2 +11.6 96 +11 +11 по сезону 1018.6 1002.3
17 16.09 СЗ 2 18 км в посл. час морось 10/10 90 м
[Sc]
+12.1 +11.3 95 +11 +11 по сезону 1018.2 1001.9
18 16.09 СЗ 1 20 км в посл. час морось {дождь} 10/10 100 м
[Sc]
+12.1 +11.3 95 +12 +12 по сезону 1018.5 1002.2 +11.7 +14.4 1
19 16.09 З 1 20 км 10/9 210 м
[Sc]
+12.0 +10.9 93 +12 +12 тепло 1018.8 1002.5
20 16.09 З 2 20 км 9/9 270 м
[Sc]
+11.5 +10.7 95 +10 +10 по сезону 1018.8 1002.5
21 16.09 З 2 20 км 9/4 1500 м
[Sc Ac As]
+11.2 +10.4 95 +10 +10 по сезону 1018.7 1002.4
22 16.09 З 2 15 км 9/9 1300 м
[Sc]
+11.2 +10.6 96 +10 +10 тепло 1018.6 1002.3
23 16.09 З 2 15 км 8/4 1500 м
[Sc Ac trans]
+10.8 +10.1 95 +9 +9 по сезону 1018.7 1002.3
00 17.09 З 3 15 км 6/6 1000 м
[Sc]
+10.1 +9.4 95 +8 +8 по сезону 1018.7 1002.3
01 17.09 З 2 15 км 1/1 1470 м
[Sc]
+9.8 +9.1 95 +8 +8 тепло 1018.4 1002.0
02 17.09 З 3 15 км 8/8 1500 м
[Sc]
+8.9 +8.4 97 +6 +6 по сезону 1018.4 1001.9
03 17.09 З 4 18 км 4/4 1440 м
[Sc]
+8.7 +8.1 96 +5 +5 прохладно 1018.1 1001.6
04 17.09 З 4 20 км 8/8 870 м
[Cu Sc]
+9.8 +9.0 95 +7 +7 по сезону 1018.0 1001.6
05 17.09 З 4 15 км 3/1 1320 м
[Cu hum Ci fib]
+7.6 +7.1 97 +4 +4 прохладно 1018.2 1001.6
06 17.09 З 4 15 км 3/1 1500 м
[Sc Ci]
+9.6 +8.8 95 +7 +7 по сезону 1018.0 1001.6 +7.3 +12.2
07 17.09 З 5 20 км 3/0
[Ci sp]
+11.6 +9.4 86 +9 +10 по сезону 1017.6 1001.3
08 17.09 З 7 20 км 5/5 450 м
[Cu Sc]
+13.3 +9.6 78 +11 +11 по сезону 1017.5 1001.3
09 17.09 З 8 35 км 5/5 600 м
[Cu Sc]
+14.7 +8.7 67 +13 +13 по сезону 1017.0 1000.9
10 17.09 З 9 40 км 6/6 1050 м
[Cu med, cong]
+15.3 +6.8 57 +13 +14 прохладно 1016.6 1000.5
11 17.09 З 10 45 км 8/8 1080 м
[Cu Sc]
+14.8 +6.4 57 +12 +13 прохладно 1016.3 1000.2
12 17.09 З 10 50 км 9/9 1200 м
[Cu Sc]
+15.3 +5.9 53 +13 +13 прохладно 1015.7 999.6
13 17.09 З 10 55 км 9/9 1300 м
[Cu Sc]
+15.8 +6.3 53 +14 +14 по сезону 1015.1 999.1
14 17.09 З 9 55 км 9/9 1300 м
[Cu Sc]
+15.8 +6.7 55 +14 +14 по сезону 1014.9 998.9
15 17.09 СЗ 9 50 км слаб. ливневой дождь 9/9 1140 м
[Cu med, cong]
+11.6 +8.0 79 +8 +8 очень
холодно
1016.0 999.7 0.5
16 17.09 З 8 55 км в посл. час ливневой дождь 4/4 1500 м
[Cb calv Ci fib]
+13.5 +8.6 72 +11 +11 по сезону 1016.1 999.9
17 17.09 З 7 50 км 6/4 1200 м
[Cu med, cong Ac und]
+13.3 +7.4 67 +11 +11 по сезону 1016.2 1000.0
18 17.09 СЗ 5 45 км в посл. час ливневой дождь 5/4 600 м
[Cu Sc Ci]
+12.3 +5.3 62 +10 +10 прохладно 1017.4 1001.1 +9.6 +16.7 0.9
19 17.09 З 6 45 км 6/4 1200 м
[Cu Sc Ac und]
+11.7 +4.4 61 +9 +9 по сезону 1018.3 1002.0
20 17.09 З 5 50 км 4/4 1500 м
[Sc]
+9.9 +4.8 71 +7 +7 прохладно 1018.9 1002.5
21 17.09 З 6 50 км 1/0
[Ac trans]
+10.2 +4.6 68 +7 +7 холодно 1019.3 1002.9 0.0
22 17.09 З 6 50 км 4/4 1380 м
[Sc]
+9.5 +4.2 69 +6 +6 по сезону 1019.6 1003.1
23 17.09 З 7 50 км 5/5 1000 м
[Cu Sc]
+9.7 +4.5 70 +6 +6 по сезону 1020.2 1003.7
00 18.09 З 6 45 км 1/1 1500 м
[Sc]
+9.1 +4.9 75 +5 +5 холодно 1021.0 1004.5
01 18.09 З 5 45 км 4/4 1020 м
[Sc]
+9.2 +5.6 78 +6 +6 по сезону 1021.4 1004.9
02 18.09 З 5-8
{8}
45 км ясно +8.0 +5.6 85 +4 +4 прохладно 1021.6 1005.0
03 18.09 З 4 45 км ясно +7.8 +5.3 84 +4 +4 холодно 1022.0 1005.4
04 18.09 З 4-5
{6}
40 км ясно +6.1 +4.6 90 +2 +2 по сезону 1022.3 1005.6
05 18.09 ЮЗ 4 35 км 3/3 960 м
[Sc Ci fib]
+5.5 +4.4 93 +1 +1 холодно 1023.1 1006.3
06 18.09 З 5 35 км 8/5 1000 м
[Sc Ci]
+7.4 +5.5 88 +3 +4 холодно 1023.2 1006.5 +5.4 +12.5
07 18.09 З 6 30 км 8/4 960 м
[Sc Ac trans Ci fib]
+9.5 +6.6 82 +6 +6 прохладно 1023.6 1007.1
08 18.09 З 6 35 км 5/4 840 м
[Sc Ci fib]
+10.8 +6.8 76 +8 +9 прохладно 1024.3 1007.8
09 18.09 З 4 30 км осадки на расстоянии 9/9 600 м
[Cu Sc]
+12.2 +7.3 72 +10 +11 прохладно 1024.5 1008.1
10 18.09 З 6 30 км в посл. час ливневой дождь 6/6 660 м
[Cu Sc]
+13.3 +7.7 69 +11 +12 прохладно 1024.2 1007.9
11 18.09 СЗ 6 20 км слаб. ливневой дождь 9/9 1000 м
[Cb cap]
+13.3 +6.0 61 +11 +11 холодно 1024.4 1008.1
12 18.09 СЗ 6 40 км в посл. час ливневой дождь 6/5 1080 м
[Cu med, cong Ac trans]
+14.6 +4.8 52 +13 +14 прохладно 1024.1 1007.8 0.0
13 18.09 СЗ 4 45 км в посл. час ливневой дождь 6/4 1020 м
[Cu Sc Ac und]
+14.7 +5.7 55 +14 +16 по сезону 1023.8 1007.6
14 18.09 СЗ 6 50 км 4/4 1440 м
[Cu Sc Ci fib]
+15.8 +3.4 43 +15 +16 по сезону 1023.5 1007.3
15 18.09 СЗ 7 60 км {ливн. осадки} 9/8 1300 м
[Cu Sc Ac trans]
+14.0 +4.0 51 +12 +12 прохладно 1023.7 1007.4 0.0
16 18.09 СЗ 6 60 км 5/1 1380 м
[Cu Sc Ac und Ci fib]
+13.9 +2.4 46 +12 +12 по сезону 1023.7 1007.4
17 18.09 СЗ 4 55 км 4/3 1500 м
[Sc Ac trans Ci fib]
+12.9 +4.0 55 +11 +11 по сезону 1023.9 1007.5
18 18.09 З 4 60 км {ливн. осадки} 6/0
[Ac und]
+12.0 +4.4 60 +10 +10 прохладно 1024.1 1007.7 +7.5 +15.9 0.0
19 18.09 З 4 60 км 4/0
[Ac trans]
+11.4 +4.9 64 +9 +9 по сезону 1024.9 1008.4
20 18.09 З 4 60 км 1/1 1500 м
[Sc]
+10.4 +5.5 72 +8 +8 по сезону 1025.2 1008.7
21 18.09 СЗ 4 60 км 3/3 1500 м
[Sc]
+10.0 +4.9 71 +7 +7 холодно 1025.5 1009.0
22 18.09 СЗ 2 60 км 1/1 1500 м
[Sc]
+9.4 +4.6 72 +8 +8 по сезону 1025.9 1009.3
23 18.09 СЗ 3 60 км 1/1 1500 м
[Sc]
+8.9 +3.5 69 +7 +7 по сезону 1026.2 1009.6
00 19.09 З 4 60 км ясно +7.3 +3.5 77 +4 +4 холодно 1026.4 1009.7
01 19.09 З 4-5
{6}
50 км ясно +6.5 +3.2 79 +3 +3 по сезону 1026.6 1009.8
02 19.09 З 3 50 км 4/4 1380 м
[Sc]
+6.2 +3.3 82 +3 +3 прохладно 1026.8 1010.0
03 19.09 З 4 50 км 9/9 1500 м
[Sc]
+6.7 +3.8 82 +3 +3 холодно 1026.9 1010.1
04 19.09 З 4 50 км 9/9 1500 м
[Sc]
+6.0 +3.6 85 +2 +2 по сезону 1027.2 1010.4
05 19.09 З 4 50 км 9/9 1500 м
[Sc]
+6.1 +3.7 85 +2 +2 прохладно 1027.4 1010.6
06 19.09 З 4 50 км 9/9 1000 м
[Sc]
+7.1 +4.3 82 +4 +4 прохладно 1027.8 1011.0 +5.3 +12.2
07 19.09 З 4 50 км 8/4 1200 м
[Sc Ci fib]
+8.7 +4.8 76 +6 +6 прохладно 1028.2 1011.5
08 19.09 СЗ 4 50 км 8/3 1350 м
[Sc Cs]
+10.9 +5.0 67 +9 +10 по сезону 1028.6 1012.1
09 19.09 СЗ 4 50 км 9/5 600 м
[Cu Sc Ci fib]
+11.9 +5.0 63 +10 +12 прохладно 1028.8 1012.3
10 19.09 С 5 50 км 9/6 960 м
[Cu med, cong Ci fib]
+13.2 +4.6 56 +11 +13 прохладно 1029.1 1012.7
11 19.09 С 5 55 км 9/5 1110 м
[Cu med, cong Ci]
+13.9 +3.5 49 +12 +14 прохладно 1028.9 1012.5
12 19.09 СЗ 4 55 км 9/6 1230 м
[Cu Sc Ci fib]
+14.4 +2.3 44 +13 +15 прохладно 1028.8 1012.4
13 19.09 С 4 60 км 9/6 1500 м
[Cu Sc Ci]
+14.6 +2.4 44 +14 +15 по сезону 1028.8 1012.5
14 19.09 СЗ 4 60 км 10/4 1500 м
[Cu Sc Ci]
+15.7 +2.0 40 +15 +16 по сезону 1028.4 1012.1
15 19.09 СЗ 4 60 км 10/4 1500 м
[Cu Sc Ci fib]
+15.3 +2.8 43 +14 +15 по сезону 1028.3 1012.0
16 19.09 СЗ 4 60 км 9/4 1500 м
[Cu Sc Ci fib]
+14.8 +3.0 45 +14 +14 тепло 1028.2 1011.9
17 19.09 СЗ 3 60 км 9/3 1500 м
[Cu Sc Ci fib]
+13.9 +2.1 45 +13 +13 по сезону 1028.6 1012.2
18 19.09 З 1 55 км 8/3 1500 м
[Sc Ci fib]
+12.2 +2.2 50 +13 +13 по сезону 1029.1 1012.6 +7.1 +15.9
19 19.09 З 2 50 км 8/3 1500 м
[Sc Ci fib]
+8.4 +2.3 65 +7 +7 по сезону 1029.5 1012.8
20 19.09 З 2 45 км 4/0
[Ci fib]
+10.2 +2.7 60 +9 +9 по сезону 1029.8 1013.2
21 19.09 З 2 45 км 5/0
[Ci]
+7.5 +2.6 71 +6 +6 холодно 1030.2 1013.4
22 19.09 З 2
{3}
45 км 8/0
[Ci]
+9.1 +3.0 66 +8 +8 тепло 1030.1 1013.4
23 19.09 З 3 45 км 8/0
[Ci fib]
+7.1 +3.0 75 +4 +4 прохладно 1030.0 1013.2
00 20.09 З 2 45 км 9/0
[Ac trans Ci]
+6.3 +3.0 79 +4 +4 холодно 1029.9 1013.1
01 20.09 З 2 40 км 9/0
[Ci fib]
+6.6 +3.3 79 +4 +4 тепло 1029.8 1013.0

 

Местоположение метеостанции Лейпциг (Германия): широта 51.42 долгота 12.23 высота над уровнем моря 133 м.

В архиве по умолчанию представлена погода в Лейпциге за последнюю неделю. Архивные данные за месяц целиком и за предыдущие месяцы, начиная с января 2011 года, Вы можете получить, выбрав интересующий диапазон дат из раскрывающегося списка и нажав кнопку "Ввод!".


*Определитесь, кто Вы:
робот инопланетянин человек

Внимание! Время в таблицах - всемирное. Для получения местного времени необходимо прибавить поправку, которая равна 1 ч.

Смотрите также архив погоды в соседних городах и на ближайших метеорологических станциях:

Погода в Лейпциг-Зюде (Германия) (17 км)
Погода в Остерфельде (Германия) (43 км)
Погода в Виттенберге (Германия) (59 км)
Погода в Аэропорту Gera-Leumnitz (Германия) (60 км)
Погода в Ошаце (Германия) (62 км)
Погода в Артерне (Германия) (65 км)
Погода на Базе ВВС Holzdorf (Германия) (76 км)
Погода в Визенбурге (Германия) (80 км)
Погода в Харцгероде (Германия) (80 км)
Погода в Хемнице (Германия) (82 км)

Пояснения к столбцам:

Ветер - указаны скорость ветра в м/с - средняя за 10 мин, порывы в срок и между сроками (в фигурных скобках) и направление, откуда дует ветер: С - северный, СВ - северо-восточный, В - восточный, ЮВ - юго-восточный, Ю - южный, ЮЗ - юго-западный, З - западный, СЗ - северо-западный.
Видимость - горизонтальная дальность видимости в метрах или километрах. При видимости от 1 до 10 км при отсутствии осадков обычно наблюдается дымка, при ухудшении видимости до 1 км и менее - туман. В сухую погоду видимость может ухудшаться дымом, пылью или мглою.
Явления - указаны атмосферные явления, наблюдавшиеся в срок или в последний час перед сроком; фигурными скобками обозначены явления, наблюдавшиеся между сроками (за 1-3 часа до срока); квадратными скобками обозначены град или гололедные отложения с указанием их диаметра в мм.
Облачность - указаны через наклонную черту общая и нижняя облачность в баллах и высота нижней границы облаков в метрах; квадратными скобками обозначены формы облаков: Ci - перистые, Cs - перисто-слоистые, Cc - перисто-кучевые, Ac - высококучевые, As - высокослоистые, Sc - слоисто-кучевые, Ns - слоисто-дождевые, Cu - кучевые, Cb - кучево-дождевые. Подробнее классификацию облаков см. в Атласе облаков (PDF).
T - Температура воздуха - температура, измеренная на высоте 2 м над землей.
Td - Температура точки росы - температура, при понижении до которой содержащийся в воздухе водяной пар достигнет насыщения.
f - Относительная влажность воздуха - влажноcть воздуха, измеренная на высоте 2 м над землей.
Te - Эффективная температура - температура, которую ощущает одетый по сезону человек в тени. Характеристика душности погоды. При расчете учитывается влияние влажности воздуха и скорости ветра на теплоощущения человека.
Tes - Эффективная температура на солнце - температура, которую ощущает человек, с поправкой на солнечный нагрев. Характеристика знойности погоды. Зависит от высоты солнца над горизонтом, облачности и скорости ветра. Ночью, в пасмурную погоду, а также при ветре 12 м/с и более поправка равна нулю.
P - Атмосферное давление - приведенное к уровню моря атмосферное давление.
Po - Атмосферное давление - измеренное на уровне метеостанции атмосферное давление.
Tmin - Минимальная температура - минимум температуры воздуха на высоте 2 м над землей.
Tmax - Максимальная температура - максимум температуры воздуха на высоте 2 м над землей.
R - Количество осадков - Количество выпавших осадков за период времени, мм. При наведении курсора мыши на число - период времени, за который выпало указанное количество осадков.
R24 - Количество осадков - Количество выпавших осадков за 24 часа, мм.
S - Снежный покров - Высота снежного покрова, см. При наведении курсора мыши на число - состояние снежного покрова и степень покрытия местности в баллах.